Location: Goodmans Corner
(38.2049°N, 120.9872°W)
Time: 02:52:36
(UTC+00:00)

ISS - Visible Passes

Search period start: 21 April 2019 00:00
Search period end: 01 May 2019 00:00
Orbit: 408 x 410 km, 51.6° (Epoch: 21 April)

Date Brightness Start Highest point End Pass type
(mag) Time Alt. Az. Time Alt. Az. Time Alt. Az.
26 Apr -2.2 12:46:34 10° SSW 12:49:30 30° SE 12:52:28 10° ENE visible
27 Apr -1.3 11:56:43 10° S 11:58:49 16° SE 12:00:57 10° E visible
28 Apr -3.8 12:40:57 10° SW 12:44:15 90° SW 12:47:33 10° NE visible
29 Apr -3.0 11:51:48 23° SSW 11:53:26 44° SE 11:56:36 10° ENE visible
30 Apr -1.8 11:03:01 22° ESE 11:03:01 22° ESE 11:05:20 10° ENE visible
30 Apr -2.7 12:36:03 10° W 12:39:07 35° NNW 12:42:12 10° NE visible
